STARLINK-3882 (52475 NORAD) Tracking and Keplerian Element Data
This shows tracking and keplerian element data for the satellite.
Feedback or suggestion? Click here.
Element | Value |
Catalog | 52475 |
Name | STARLINK-3882 |
Epoch Orbit | 130 |
Epoch Day | 167.08334491 |
Epoch Year | 2022 |
RAAN | 64.9956 |
Inclination | 53.2167 |
Eccentricity | 0.00021 |
Argument of Perigee | 32.4025 |
Mean Anonmoly | 109.0043 |
Mean Motion | 15.73188671 |
Decay Rate | 0.00089661 |
L1 | 1 52475U 22049AA 22167.08334491 .00089661 00000+0 63674-3 0 9998 |
L2 | 2 52475 53.2167 64.9956 0002100 32.4025 109.0043 15.73188671 1305 |
Live tracking and technical data element details for STARLINK-3882 (NORAD 52475). STARLINK-3882 can be tracked NOW for your location showing map with azimuth and elevation plus other details from your city location.
Track the satellite on the map from your city or location and see movement details for azimuth, elevation, latitude, longitude, range, height, and movement on the map or in text.
IsCatalogInMostPopularTable: catalog: 52475, numindb: 1
Update: records affected: 1
GetName: 52475 STARLINK-3882
Hit Count: updated at: Mon, 27 Jun 2022 04:59:08 GMT